Terminal Aerodrome Forecast
Issued by NWS Raleigh/Durham, NC

Home | Current Version | Previous Version | Text Only | Print | Product List | Glossary On
Versions: 1 2 3 4 5 6 7 8 9 10 11 12 13 14 15 16 17 18 19 20 21 22 23 24 25 26 27 28 29 30 31 32 33 34 35 36 37 38 39 40 41 42 43 44 45 46 47 48 49 50
000
FTUS42 KRAH 022029 AAB
TAFRDU
TAF AMD
KRDU 022029Z 0220/0318 24010KT P6SM VCSH BKN050
      TEMPO 0221/0223 VRB18G35KT 2SM TSRA BR SCT020 BKN030CB
     FM030100 24005KT P6SM VCSH SCT050 BKN090
     FM031000 22006KT P6SM OVC120=

USA.gov is the U.S. government's official web portal to all federal, state and local government web resources and services.